Regional Weather Roundup
Issued by NWS

Home | Current Version | Previous Version | Graphics & Text | Print | Product List | Glossary On
Versions: 1 2 3 4 5 6 7 8 9 10 11 12 13 14 15 16 17 18 19 20 21 22 23 24 25 26 27 28 29 30 31 32 33 34 35 36 37 38 39 40 41 42 43 44 45 46 47 48 49 50
000
ASUS43 KOAX 292102
RWRNE

WEATHER ROUNDUP FOR NEBRASKA
NATIONAL WEATHER SERVICE OMAHA NE
400 PM CDT TUE JUL 29 2014

NOTES: SATELLITE DATA IS BEING USED TO AUGMENT CLOUD COVER ABOVE
       12000 FEET.
       "FAIR" INDICATES FEW OR NO CLOUDS BELOW 12,000 FEET WITH NO
       SIGNIFICANT WEATHER AND/OR OBSTRUCTIONS TO VISIBILITY.

  * THESE STATIONS DO NOT REPORT WEATHER SUCH AS RAIN...SNOW OR FOG.

NEZ001>004-019>022-054>056-292200-
NEBRASKA PANHANDLE

CITY           SKY/WX    TMP DP  RH WIND       PRES   REMARKS
SCOTTSBLUFF    MOSUNNY   84  60  44 SE6       30.17F
ALLIANCE       PTSUNNY   80  56  43 E14       30.19F
CHADRON        PTSUNNY   75  58  55 NE17      30.21F
KIMBALL        CLOUDY    79  53  40 SE12      30.19F
SIDNEY         PTSUNNY   83  56  39 SE12G22   30.19F
$$

NEZ057>060-069>072-079>082-292200-
SOUTHWEST NEBRASKA

CITY           SKY/WX    TMP DP  RH WIND       PRES   REMARKS
NORTH PLATTE   SUNNY     82  58  43 E10G20    30.16F
IMPERIAL       MOSUNNY   83  59  44 E10       30.15F
LEXINGTON      SUNNY     81  61  50 E12       30.17F
MCCOOK         MOSUNNY   85  59  41 E13G18    30.13F
OGALLALA       MOSUNNY   81  59  47 E7        30.16S
$$

NEZ005>010-023>029-035>040-094-292200-
NORTH CENTRAL NEBRASKA

CITY           SKY/WX    TMP DP  RH WIND       PRES   REMARKS
VALENTINE      CLOUDY    76  52  43 N7        30.21F
AINSWORTH      CLOUDY    74  55  51 NE7       30.21F
BROKEN BOW     PTSUNNY   79  58  48 CALM      30.18F
O`NEILL        CLOUDY    77  49  36 W3        30.19F
ORD            PTSUNNY   77  57  50 CALM      30.17F
THEDFORD       PTSUNNY   80  58  47 E3        30.21S
$$

NEZ041-046>049-061>064-073>077-083>087-292200-
SOUTH CENTRAL NEBRASKA

CITY           SKY/WX    TMP DP  RH WIND       PRES   REMARKS
GRAND ISLAND   SUNNY     77  58  51 E5        30.18F
AURORA         PTSUNNY   77  58  51 NE7       30.18F
HASTINGS       SUNNY     78  56  46 NE10      30.17F
HEBRON         MOSUNNY   80  53  39 NE5       30.16F
HOLDREGE       SUNNY     80  57  45 E10       30.16F
KEARNEY *      SUNNY     81  57  44 E9        30.18F
YORK           MOSUNNY   77  57  50 NE7       30.18F
$$

NEZ011>018-030>034-042>045-292200-
NORTHEAST NEBRASKA

CITY           SKY/WX    TMP DP  RH WIND       PRES   REMARKS
NORFOLK        PTSUNNY   78  53  41 N10       30.18F
ALBION         PTSUNNY   74  54  49 E5        30.19F
BLAIR          PTSUNNY   76  54  45 NW8       30.17F
COLUMBUS *     PTSUNNY   77  54  44 N7        30.18F
FREMONT        MOSUNNY   79  53  40 NW8       30.17F
TEKAMAH        PTSUNNY   78  54  43 N7        30.16F
WAYNE          MOSUNNY   76  56  50 N7        30.19F
$$

NEZ050>053-065>068-078-088>093-292200-
SOUTHEAST NEBRASKA

CITY           SKY/WX    TMP DP  RH WIND       PRES   REMARKS
LINCOLN        MOSUNNY   82  51  34 MISG      30.17F
OMAHA EPPLEY   PTSUNNY   79  52  38 NW10      30.15F
BEATRICE       MOSUNNY   79  57  46 NE3       30.15F
FALLS CITY     MOSUNNY   80  57  45 N8        30.14F
NEBRASKA CITY  PTSUNNY   79  53  40 N6        30.15F
PLATTSMOUTH    MOSUNNY   76  52  43 CALM      30.16S
$$

NEZ044-045-051>053-067-292200-
OMAHA AREA

CITY           SKY/WX    TMP DP  RH WIND       PRES   REMARKS
OMAHA EPPLEY   PTSUNNY   79  52  38 NW10      30.15F
BLAIR          PTSUNNY   76  54  45 NW8       30.17F
FREMONT        MOSUNNY   79  53  40 NW8       30.17F
MILLARD        PTSUNNY   77  56  47 NW5       30.16S
OFFUTT AFB     MOSUNNY   77  55  45 N1        30.15F
PLATTSMOUTH    MOSUNNY   76  52  43 CALM      30.16S
WAHOO          FAIR      78  53  41 CALM      30.17S
$$



USA.gov is the U.S. government's official web portal to all federal, state and local government web resources and services.